Location: Nelson
(41.2830°S, 173.2830°E)
Time: 18:15:52
(UTC+12:00)

CSL-04 DEB - Pass Details

Date: 14 May 2021
Orbit: 544 x 628 km, 98.8° (Epoch: 19 June)

Event Time Altitude Azimuth Distance (km) Brightness Sun altitude
Rises 17:59:57 0° 24° (NNE) 2,711 7.8 -8.0°
Reaches altitude 10° 18:02:04 10° 28° (NNE) 1,823 6.9 -8.4°
Maximum altitude 18:05:56 59° 107° (ESE) 644 4.3 -9.1°
Drops below altitude 10° 18:09:52 10° 186° (S) 1,855 6.9 -9.8°
Sets 18:12:03 0° 189° (S) 2,763 7.8 -10.2°
